TimeCST,TemperatureF,Dew PointF,Humidity,Sea Level PressureIn,VisibilityMPH,Wind Direction,Wind SpeedMPH,Gust SpeedMPH,PrecipitationIn,Events,Conditions,WindDirDegrees,DateUTC
12:15 AM,33.8,30.2,87,30.02,5.0,SSW,9.2,-,N/A,,Overcast,200,2012-01-26 06:15:00
12:35 AM,33.8,30.2,87,30.01,5.0,SW,9.2,-,N/A,,Overcast,220,2012-01-26 06:35:00
12:55 AM,33.8,30.2,87,30.00,4.0,SSW,6.9,-,N/A,,Overcast,200,2012-01-26 06:55:00
1:15 AM,33.8,30.2,87,29.97,5.0,South,11.5,16.1,N/A,,Overcast,180,2012-01-26 07:15:00
1:35 AM,33.8,30.2,87,29.98,4.0,SSW,10.4,-,N/A,,Mostly Cloudy,210,2012-01-26 07:35:00
1:55 AM,33.8,30.2,87,29.98,4.0,SSW,8.1,-,N/A,,Partly Cloudy,200,2012-01-26 07:55:00
2:15 AM,32.0,30.2,93,29.96,5.0,South,8.1,-,N/A,,Clear,190,2012-01-26 08:15:00
2:35 AM,32.0,30.2,93,29.95,4.0,SSW,8.1,-,N/A,,Scattered Clouds,200,2012-01-26 08:35:00
2:55 AM,32.0,30.2,93,29.93,4.0,South,5.8,-,N/A,,Scattered Clouds,190,2012-01-26 08:55:00
3:15 AM,32.0,28.4,87,29.93,4.0,SSW,6.9,-,N/A,,Clear,210,2012-01-26 09:15:00
3:35 AM,30.2,30.2,100,29.92,4.0,SW,4.6,-,N/A,,Mostly Cloudy,230,2012-01-26 09:35:00
3:55 AM,30.2,28.4,93,29.91,4.0,SSW,5.8,-,N/A,,Mostly Cloudy,200,2012-01-26 09:55:00
4:15 AM,32.0,28.4,87,29.92,4.0,SW,8.1,-,N/A,,Mostly Cloudy,220,2012-01-26 10:15:00
4:35 AM,32.0,28.4,87,29.91,5.0,SW,8.1,-,N/A,,Overcast,220,2012-01-26 10:35:00
4:55 AM,32.0,28.4,87,29.90,5.0,SW,8.1,-,N/A,,Overcast,220,2012-01-26 10:55:00
5:15 AM,32.0,28.4,87,29.90,5.0,SW,9.2,-,N/A,,Overcast,220,2012-01-26 11:15:00
5:35 AM,32.0,28.4,87,29.90,5.0,SW,8.1,-,N/A,,Overcast,220,2012-01-26 11:35:00
6:15 AM,30.2,26.6,86,29.88,5.0,SW,10.4,-,N/A,,Overcast,230,2012-01-26 12:15:00
6:35 AM,30.2,28.4,93,29.87,5.0,SW,8.1,-,N/A,,Overcast,230,2012-01-26 12:35:00
6:55 AM,30.2,26.6,86,29.86,5.0,WSW,5.8,-,N/A,,Mostly Cloudy,240,2012-01-26 12:55:00
7:15 AM,28.4,28.4,100,29.85,3.0,SW,6.9,-,N/A,,Overcast,230,2012-01-26 13:15:00
7:35 AM,28.4,26.6,93,29.84,2.5,SW,6.9,-,N/A,,Overcast,230,2012-01-26 13:35:00
7:55 AM,28.4,26.6,93,29.84,3.0,SSW,6.9,-,N/A,,Overcast,210,2012-01-26 13:55:00
8:15 AM,28.4,26.6,93,29.84,3.0,WSW,9.2,-,N/A,,Overcast,240,2012-01-26 14:15:00
8:35 AM,28.4,26.6,93,29.84,3.0,WSW,8.1,-,N/A,,Overcast,240,2012-01-26 14:35:00
8:55 AM,28.4,26.6,93,29.83,3.0,SW,9.2,-,N/A,,Overcast,230,2012-01-26 14:55:00
9:15 AM,28.4,26.6,93,29.81,2.5,SSW,9.2,-,N/A,,Overcast,200,2012-01-26 15:15:00
9:35 AM,28.4,26.6,93,29.81,2.5,SSW,12.7,16.1,N/A,,Overcast,210,2012-01-26 15:35:00
9:55 AM,28.4,26.6,93,29.80,2.0,SW,10.4,-,N/A,,Overcast,220,2012-01-26 15:55:00
10:15 AM,28.4,26.6,93,29.79,1.8,SSW,9.2,-,N/A,,Overcast,210,2012-01-26 16:15:00
10:35 AM,28.4,28.4,100,29.79,1.2,SW,12.7,20.7,N/A,,Overcast,220,2012-01-26 16:35:00
10:55 AM,28.4,28.4,100,29.79,1.2,SW,12.7,-,N/A,,Overcast,220,2012-01-26 16:55:00
11:15 AM,28.4,26.6,93,29.78,1.5,SW,11.5,17.3,N/A,,Overcast,230,2012-01-26 17:15:00
11:35 AM,30.2,28.4,93,29.77,1.8,SW,11.5,17.3,N/A,,Overcast,230,2012-01-26 17:35:00
11:55 AM,30.2,28.4,93,29.75,1.8,WSW,11.5,-,N/A,,Overcast,240,2012-01-26 17:55:00
12:15 PM,30.2,28.4,93,29.74,2.0,WSW,9.2,-,N/A,,Overcast,250,2012-01-26 18:15:00
12:35 PM,30.2,26.6,86,29.72,2.5,SW,6.9,-,N/A,,Overcast,230,2012-01-26 18:35:00
12:55 PM,30.2,28.4,93,29.71,2.5,WSW,8.1,-,N/A,,Overcast,240,2012-01-26 18:55:00
1:15 PM,30.2,28.4,93,29.70,2.5,SW,9.2,-,N/A,,Overcast,230,2012-01-26 19:15:00
1:35 PM,30.2,28.4,93,29.69,3.0,SW,9.2,-,N/A,,Overcast,230,2012-01-26 19:35:00
1:55 PM,32.0,28.4,87,29.68,3.0,SSW,10.4,-,N/A,,Overcast,210,2012-01-26 19:55:00
2:15 PM,32.0,30.2,93,29.68,2.5,SSW,9.2,-,N/A,,Overcast,210,2012-01-26 20:15:00
2:35 PM,32.0,28.4,87,29.68,2.5,SW,6.9,-,N/A,,Overcast,230,2012-01-26 20:35:00
2:55 PM,32.0,30.2,93,29.67,2.5,SW,6.9,-,N/A,,Overcast,230,2012-01-26 20:55:00
3:15 PM,32.0,30.2,93,29.66,3.0,WSW,8.1,-,N/A,,Overcast,240,2012-01-26 21:15:00
3:35 PM,32.0,30.2,93,29.67,3.0,WSW,6.9,-,N/A,,Overcast,250,2012-01-26 21:35:00
3:55 PM,32.0,30.2,93,29.67,4.0,WSW,5.8,-,N/A,,Overcast,250,2012-01-26 21:55:00
4:15 PM,32.0,30.2,93,29.67,4.0,WSW,10.4,-,N/A,,Overcast,240,2012-01-26 22:15:00
4:35 PM,32.0,30.2,93,29.66,4.0,WSW,9.2,-,N/A,,Overcast,240,2012-01-26 22:35:00
4:55 PM,32.0,30.2,93,29.65,4.0,West,8.1,-,N/A,,Overcast,260,2012-01-26 22:55:00
5:15 PM,32.0,28.4,87,29.65,5.0,West,6.9,-,N/A,,Overcast,270,2012-01-26 23:15:00
5:35 PM,32.0,30.2,93,29.65,5.0,West,8.1,-,N/A,,Overcast,280,2012-01-26 23:35:00
5:55 PM,30.2,28.4,93,29.65,5.0,West,6.9,-,N/A,,Overcast,280,2012-01-26 23:55:00
6:15 PM,30.2,28.4,93,29.66,4.0,West,5.8,16.1,N/A,,Overcast,280,2012-01-27 00:15:00
6:35 PM,30.2,28.4,93,29.66,5.0,West,5.8,-,N/A,,Overcast,270,2012-01-27 00:35:00
6:55 PM,30.2,28.4,93,29.66,5.0,WSW,4.6,-,N/A,,Overcast,240,2012-01-27 00:55:00
7:15 PM,30.2,28.4,93,29.64,5.0,Calm,Calm,-,N/A,,Overcast,0,2012-01-27 01:15:00
7:35 PM,30.2,28.4,93,29.64,5.0,SW,3.5,-,N/A,,Overcast,230,2012-01-27 01:35:00
7:55 PM,30.2,28.4,93,29.64,5.0,WSW,3.5,-,N/A,,Overcast,240,2012-01-27 01:55:00
8:35 PM,30.2,28.4,93,29.63,4.0,Calm,Calm,-,N/A,,Overcast,0,2012-01-27 02:35:00
8:55 PM,30.2,28.4,93,29.63,4.0,Calm,Calm,-,N/A,,Overcast,0,2012-01-27 02:55:00
9:15 PM,30.2,28.4,93,29.63,4.0,SW,4.6,-,N/A,,Overcast,230,2012-01-27 03:15:00
9:35 PM,30.2,30.2,100,29.62,4.0,Calm,Calm,-,N/A,,Overcast,0,2012-01-27 03:35:00
9:55 PM,30.2,28.4,93,29.62,4.0,West,3.5,-,N/A,,Overcast,260,2012-01-27 03:55:00
10:15 PM,30.2,28.4,93,29.61,4.0,West,3.5,-,N/A,,Overcast,270,2012-01-27 04:15:00
10:35 PM,32.0,28.4,87,29.61,4.0,Calm,Calm,-,N/A,,Overcast,0,2012-01-27 04:35:00
10:55 PM,32.0,28.4,87,29.61,4.0,Calm,Calm,-,N/A,,Overcast,0,2012-01-27 04:55:00
11:15 PM,32.0,28.4,87,29.61,4.0,West,3.5,-,N/A,,Overcast,280,2012-01-27 05:15:00
11:35 PM,32.0,28.4,87,29.61,4.0,West,3.5,-,N/A,,Overcast,270,2012-01-27 05:35:00
11:55 PM,32.0,28.4,87,29.61,4.0,WNW,4.6,-,N/A,,Overcast,290,2012-01-27 05:55:00